Weather observations for the past three days for
Corvallis, Corvallis Municipal Airport
Imperial (Metric)
Date Time (pdt) Wind (mph) Vis. (mi.) Weather Sky Cond. Temperature (ºF) Relative Humidity Wind Chill (°F) Heat Index (°F) Pressure Precipitation (in)
Air Dwpt 6 hour altimeter (in) sea level (mb) 1 hr 3 hr 6 hr
Max. Min.
22 22:56 NW 8 10.00 Fair CLR 60.1 50 77 60.1 70% 30.17 1021.7
22 21:56 NW 10 10.00 Fair CLR 62.1 50 65% 30.15 1021.1
22 20:56 NW 14 10.00 Fair CLR 66 51.1 59% 30.12 1020.0
22 19:56 NW 14 10.00 Fair CLR 70 51.1 51% 30.11 1019.4
22 18:56 NW 16 G 21 10.00 Fair CLR 73 52 48% 30.1 1019.4
22 17:56 NW 17 10.00 Fair CLR 75.9 52 43% 78 30.1 1019.4
22 16:56 NW 15 G 21 10.00 Fair CLR 77 53.1 79 68 43% 78 30.1 1019.4
22 15:56 NW 14 4.00 Fair with Haze CLR 78.1 52 40% 79 30.11 1019.4
22 14:56 NW 10 G 17 10.00 Fair CLR 78.1 53.1 42% 79 30.11 1019.4
22 13:56 Vrbl 6 10.00 Fair CLR 77 54 45% 78 30.11 1019.7
22 12:56 N 8 10.00 Fair CLR 73.9 53.1 48% 30.12 1019.9
22 11:56 N 8 10.00 Fair CLR 71.1 52 51% 30.13 1020.3
22 10:56 N 9 10.00 A Few Clouds FEW032 69.1 52 69.1 57 55% 30.14 1020.7
22 09:56 NE 10 G 17 10.00 Fair CLR 66 52 61% 30.15 1020.8
22 08:56 N 9 10.00 Mostly Cloudy BKN026 64.9 51.1 61% 30.15 1020.9
22 07:56 NW 8 10.00 Fair CLR 61 52 72% 30.16 1021.2
22 06:56 NW 8 10.00 Mostly Cloudy BKN041 59 51.1 75% 30.14 1020.8
22 05:56 NW 9 10.00 Overcast OVC041 57.9 51.1 78% 30.13 1020.3
22 04:56 NW 6 10.00 Overcast OVC043 57 51.1 60.1 57 81% 30.12 1020.0
22 03:56 NW 6 10.00 Fair CLR 57 52 83% 30.12 1019.8
22 02:56 NW 8 10.00 Fair CLR 57 53.1 87% 30.11 1019.6
22 01:56 NW 10 10.00 Fair CLR 57.9 53.1 84% 30.11 1019.5
22 00:56 NW 12 10.00 Fair CLR 57.9 54 87% 30.11 1019.8
21 23:56 NW 15 10.00 Fair CLR 59 54 83% 30.11 1019.6
21 22:56 NW 16 10.00 Fair CLR 60.1 54 78.1 60.1 80% 30.1 1019.4
21 21:56 NW 18 10.00 Fair CLR 62.1 55 78% 30.1 1019.3
21 20:56 NW 15 G 21 10.00 Fair CLR 63 55 76% 30.09 1019.0
21 19:56 NW 17 G 23 10.00 Fair CLR 66 55.9 70% 30.09 1018.8
21 18:56 NW 17 10.00 Fair CLR 71.1 57 61% 30.08 1018.5
21 17:56 NW 10 10.00 Fair CLR 75.9 59 56% 78 30.07 1018.2
21 16:56 NW 13 G 18 10.00 Partly Cloudy SCT042 78.1 59 79 64 52% 79 30.08 1018.5
21 15:56 W 12 G 16 10.00 Fair CLR 77 57.9 52% 79 30.09 1018.8
21 14:56 W 9 10.00 Fair CLR 75.9 57 52% 78 30.11 1019.4
21 13:56 NW 10 G 16 10.00 Fair CLR 73 59 62% 30.11 1019.5
21 12:56 NW 8 10.00 Fair CLR 71.1 57.9 63% 30.12 1020.0
21 11:56 NW 14 10.00 Overcast OVC021 66.9 57 71% 30.12 1020.0
21 10:56 NW 12 G 16 10.00 Overcast OVC015 64 57 64 57.9 78% 30.12 1020.1 0.01
21 09:56 NW 12 10.00 Overcast OVC013 63 57 81% 30.11 1019.8
21 08:56 NW 9 10.00 A Few Clouds FEW095 62.1 57.9 86% 30.11 1019.5
21 07:56 NW 6 10.00 Mostly Cloudy BKN090 60.1 57 90% 30.09 1019.0 0.01
21 06:56 NW 9 10.00 Mostly Cloudy BKN090 59 55.9 90% 30.08 1018.7
21 05:56 NW 6 10.00 Light Rain BKN100 61 57.9 90% 30.07 1018.2 0.01
21 04:56 SW 14 G 20 10.00 Thunderstorm Rain FEW050 SCT065 BKN100 61 57.9 63 60.1 90% 30.06 1017.9 0.02 0.02
21 03:56 W 6 10.00 A Few Clouds FEW024 61 55 81% 30.05 1017.5
21 02:56 NW 16 G 22 10.00 Fair CLR 61 55.9 84% 30.02 1016.5
21 01:56 NW 12 9.00 Thunderstorm FEW100 63 57 81% 30.07 1018.3
21 00:56 W 15 G 22 10.00 Thunderstorm in Vicinity CLR 62.1 55.9 80% 30.02 1016.6
20 23:56 NW 17 G 25 10.00 Fair CLR 63 55.9 78% 30.01 1016.3
20 22:56 NW 22 G 28 10.00 Fair and Breezy CLR 63 57 86 63 81% 30 1015.8
20 21:56 NW 16 G 28 10.00 Fair CLR 66 57 73% 29.99 1015.5
20 20:56 NW 20 G 24 10.00 Fair CLR 70 57.9 66% 29.97 1015.0
20 19:56 W 17 G 23 10.00 Fair CLR 75 60.1 60% 77 29.97 1014.8
20 18:56 NW 20 10.00 Fair CLR 80.1 61 52% 81 29.98 1015.1
20 17:56 NW 16 G 24 10.00 Fair CLR 84 62.1 48% 85 29.98 1015.1
20 16:56 NW 17 G 22 10.00 Fair CLR 86 62.1 90 75.9 45% 87 29.99 1015.5
20 15:56 NW 16 10.00 Fair CLR 88 62.1 42% 88 30.01 1016.1
20 14:56 NW 10 10.00 Fair CLR 90 61 38% 90 30.02 1016.5
20 13:56 NW 8 G 21 10.00 Fair CLR 88 61 40% 88 30.03 1017.0
20 12:56 W 8 10.00 Fair CLR 84.9 61 45% 85 30.06 1017.8
20 11:56 Calm 10.00 Fair CLR 80.1 59 49% 81 30.08 1018.4
20 10:56 Vrbl 3 10.00 Fair CLR 75.9 59 77 57 56% 78 30.1 1019.1
20 09:56 NE 6 10.00 Fair CLR 73 57.9 59% 30.12 1019.7
20 08:56 Calm 10.00 Fair CLR 69.1 57 66% 30.13 1020.0
20 07:56 NW 5 10.00 Fair CLR 63 55.9 78% 30.13 1020.2
20 06:56 NW 7 10.00 Fair CLR 59 54 83% 30.13 1020.1
20 05:56 NW 6 10.00 Fair CLR 57.9 54 87% 30.13 1020.1
20 04:56 NW 8 10.00 Fair CLR 57.9 54 68 57.9 87% 30.12 1020.0
20 03:56 NW 8 10.00 Fair CLR 59 54 83% 30.12 1019.9
20 02:56 NW 12 10.00 Fair CLR 61 55 81% 30.12 1019.9
20 01:56 NW 12 10.00 Fair CLR 63 55 76% 30.12 1019.8
20 00:56 NW 10 10.00 Fair CLR 64 55 73% 30.12 1020.0
19 23:56 NW 9 10.00 Fair CLR 66.9 55 66% 30.12 1019.8
Date Time (pdt) Wind (mph) Vis. (mi.) Weather Sky Cond. Air Dwpt Max. Min. Relative Humidity Wind Chill (°F) Heat Index (°F) altimeter (in) sea level (mb) 1 hr 3 hr 6 hr
6 hour
Temperature (ºF) Pressure Precipitation (in)